Location: Indian Tree Observatory
(39.4030°N, 104.5929°W)
Time: 16:27:43
(UTC-07:00)

Envisat - Visible Passes

Search period start: 15 February 2019 00:00
Search period end: 25 February 2019 00:00
Orbit: 764 x 766 km, 98.2° (Epoch: 15 February)

Date Brightness Start Highest point End Pass type
(mag) Time Alt. Az. Time Alt. Az. Time Alt. Az.
15 Feb 3.1 18:18:00 10° SSE 18:22:56 55° ENE 18:27:52 10° N visible
15 Feb 5.8 19:59:08 10° SW 20:02:15 16° W 20:05:23 10° NW visible
16 Feb 4.5 19:20:35 10° SSW 19:25:14 37° W 19:29:55 10° NNW visible
17 Feb 3.0 18:43:19 10° SSE 18:48:24 84° WSW 18:53:30 10° NNW visible
18 Feb 3.3 18:07:00 10° SE 18:11:46 43° ENE 18:16:33 10° N visible
18 Feb 5.5 19:47:12 10° SW 19:50:56 21° W 19:54:43 10° NW visible
19 Feb 6.2 06:18:06 10° NE 06:21:09 16° E 06:24:11 10° SE visible
19 Feb 4.1 19:09:07 10° S 19:13:58 47° W 19:18:52 10° NNW visible
20 Feb 2.9 18:32:09 10° SSE 18:37:12 77° ENE 18:42:17 10° N visible
20 Feb 6.2 20:15:17 10° WSW 20:16:46 11° W 20:18:14 10° WNW visible
21 Feb 5.1 19:35:26 10° SSW 19:39:39 26° W 19:43:53 10° NW visible
22 Feb 6.5 06:07:49 10° ENE 06:09:49 12° E 06:11:48 10° ESE visible
22 Feb 3.6 18:57:45 10° S 19:02:44 60° W 19:07:46 10° NNW visible
23 Feb 3.0 18:21:03 10° SSE 18:26:01 60° ENE 18:31:01 10° N visible
23 Feb 6.0 20:02:38 10° SW 20:05:25 15° W 20:08:12 10° WNW visible
24 Feb 4.7 19:23:49 10° SSW 19:28:22 33° W 19:32:57 10° NNW visible
